sat.trackr.live / text

‹ back to catalog

STARLINK-36925

NORAD 68042 · 2026-041C

PAYLOAD ACTIVE UNKNOWN

§ Identity

Operator
Country
US
Launch date
2026-03-02
Launch site
AFETR
Launch vehicle
Mass (kg)
RCS (m²)

Purposes: comms

External: N2YO · Heavens-Above · Gunter

§ Orbital elements

Epoch: 2026-05-25T03:25:23.409120Z

Period
94.10 min
Inclination
53.1600°
Eccentricity
0.0001239
Mean motion
15.30207825 rev/d
Perigee alt
474.3 km
Apogee alt
476.0 km
Semi-major
6,853.3 km
B*
4.5551e-4
RAAN
54.7653°
Arg perigee
92.6236°
Mean anomaly
267.4906°
Rev number
1,309

§ Raw data

STARLINK-369251 68042U 26041C   26145.14263205  .00013159  00000+0  45551-3 0  99952 68042  53.1600  54.7653 0001239  92.6236 267.4906 15.30207825 13090

JSON: /api/v1/satellites/68042 · /tle

For live sub-satellite position, see the globe view (requires WebGL).

§ Visibility from observer

Set your observer location to see the next 7 days of passes ≥ 10°. The values pass through the URL so the page stays shareable.

No JS? Fill the form by hand. The geolocation button needs JavaScript.